Weather History for Valdosta Regional, GA

Change the Weather History Date:

Friday, March 29, 2013

  Actual Average Record
Temperature  
Mean Temperature 58 °F 62 °F  
Max Temperature 76 °F 75 °F 87 °F (2007)
Min Temperature 39 °F 49 °F 39 °F (2013)
Degree Days  
Heating Degree Days 7 4  
Month to date heating degree days 271 178  
Since 1 July heating degree days 1140 1558  
Cooling Degree Days 0 1  
Month to date cooling degree days 21 29  
Year to date cooling degree days 98 39  
Growing Degree Days 7 (Base 50)    
Moisture  
Dew Point 36 °F    
Average Humidity 53    
Maximum Humidity 86    
Minimum Humidity 19    
Precipitation  
Precipitation 0.00 in 0.15 in 2.35 in (1951)
Month to date precipitation 2.29 4.56  
Year to date precipitation 8.44 13.29  
Sea Level Pressure  
Sea Level Pressure 30.31 in    
Wind  
Wind Speed 1 mph (SE)    
Max Wind Speed 8 mph    
Max Gust Speed 13 mph    
Visibility 9 miles    
Events      
T = Trace of Precipitation, MM = Missing Value Source: NWS Daily Summary

Daily Weather History Graph

Daily Weather History Graph

Search for Another Location

Airport:

Trip Planner

Search our weather history database for the weather conditions in past years. The results will help you decide how hot, cold, wet, or windy it might be!

Date:

Astronomy

Mar. 29, 2013 Rise Set
Actual Time 7:25 AM EDT 7:50 PM EDT
Civil Twilight 7:01 AM EDT 8:14 PM EDT
Nautical Twilight 6:32 AM EDT 8:43 PM EDT
Astronomical Twilight 6:04 AM EDT 9:11 PM EDT
Moon 10:35 PM EDT (3/29) 8:45 AM EDT (3/29)
Length of Visible Light 13h 13m
Length of Day
12h 25m
Waning Gibbous, 93% of the Moon is Illuminated
Mar 29
Waning Gibbous
Apr 3
Last Quarter
Apr 10
New
Apr 18
First Quarter
Apr 25
Full

Hourly Weather History & Observations

Time (EDT) Temp. Windchill Dew Point Humidity Pressure Visibility Wind Dir Wind Speed Gust Speed Precip Events Conditions
12:53 AM 44.1 °F - 36.0 °F 73% 30.33 in 10.0 mi Calm Calm - N/A   Clear
1:53 AM 42.1 °F 40.2 °F 37.0 °F 82% 30.33 in 10.0 mi WSW 3.5 mph - N/A   Clear
2:53 AM 43.0 °F - 37.0 °F 80% 30.33 in 10.0 mi Calm Calm - N/A   Clear
3:53 AM 41.0 °F - 36.0 °F 82% 30.32 in 9.0 mi Calm Calm - N/A   Clear
4:53 AM 41.0 °F - 36.0 °F 82% 30.32 in 5.0 mi Calm Calm - N/A   Haze
5:53 AM 41.0 °F - 36.0 °F 82% 30.33 in 6.0 mi Calm Calm - N/A   Haze
6:53 AM 39.0 °F - 36.0 °F 89% 30.34 in 5.0 mi Calm Calm - N/A   Clear
7:53 AM 41.0 °F - 37.0 °F 86% 30.35 in 6.0 mi Calm Calm - N/A   Clear
8:53 AM 51.1 °F - 41.0 °F 68% 30.37 in 6.0 mi Calm Calm - N/A   Haze
9:53 AM 63.0 °F - 36.0 °F 37% 30.38 in 10.0 mi East 3.5 mph - N/A   Clear
10:53 AM 66.0 °F - 30.9 °F 27% 30.37 in 10.0 mi East 4.6 mph - N/A   Clear
11:53 AM 70.0 °F - 32.0 °F 25% 30.37 in 10.0 mi Variable 3.5 mph - N/A   Clear
12:53 PM 73.0 °F - 30.0 °F 20% 30.35 in 10.0 mi Variable 4.6 mph - N/A   Clear
1:53 PM 73.0 °F - 30.9 °F 21% 30.32 in 10.0 mi Calm Calm - N/A   Clear
2:53 PM 75.0 °F - 32.0 °F 21% 30.29 in 10.0 mi Variable 4.6 mph - N/A   Clear
3:53 PM 75.9 °F - 32.0 °F 20% 30.26 in 10.0 mi Calm Calm - N/A   Clear
4:53 PM 75.0 °F - 30.9 °F 20% 30.23 in 10.0 mi Calm Calm - N/A   Clear
5:53 PM 75.0 °F - 32.0 °F 21% 30.23 in 10.0 mi Calm Calm - N/A   Clear
6:53 PM 72.0 °F - 35.1 °F 26% 30.23 in 10.0 mi Calm Calm - N/A   Clear
7:53 PM 62.1 °F - 44.1 °F 52% 30.24 in 10.0 mi Calm Calm - N/A   Clear
8:53 PM 59.0 °F - 39.9 °F 49% 30.25 in 10.0 mi Calm Calm - N/A   Clear
9:53 PM 55.9 °F - 39.9 °F 55% 30.27 in 10.0 mi South 3.5 mph - N/A   Clear
10:53 PM 52.0 °F - 39.9 °F 63% 30.29 in 10.0 mi Calm Calm - N/A   Clear
11:53 PM 51.1 °F - 41.0 °F 68% 30.29 in 10.0 mi Calm Calm - N/A   Clear